Location: Newark
(27.9675°N, 86.8869°E)
Time: 17:29:10
(UTC+00:00)

Courier 1B Rocket - Pass Details

Date: 24 October 2019
Orbit: 920 x 1202 km, 28.2° (Epoch: 17 November)

Event Time Altitude Azimuth Distance (km) Brightness Sun altitude
Rises 20:29:43 0° 261° (W) 3,661 - -50.8°
Reaches altitude 10° 20:32:25 10° 262° (W) 2,681 - -50.2°
Maximum altitude 20:38:51 88° 174° (S) 931 - -48.9°
Exits shadow 20:44:34 13° 85° (E) 2,411 7.5 -47.6°
Drops below altitude 10° 20:45:06 10° 85° (E) 2,604 7.8 -47.5°
Sets 20:47:41 0° 85° (E) 3,550 8.6 -47.0°
